Weather in Ipil

Philippines     7°46′44″N   122°34′34″E
temp.,
°C
wind,
m/s
gust,
m/s
humid.,
%
clouds,
%
prec.,
mm/h
press.,
hPa
HPBL,
m
30 november, tue
tue3023:00+24nw22869 0.0 100942
02:00+24nw229170 0.2 100846
05:00+24nnw239120 0.0 100777
08:00+27nnw3581100 0.0 1009473
11:00+29nne347199 0.1 10081019
14:00+28n4476100 0.6 1006801
17:00+26n2284100 0.7 100797
20:00+25w1186100 1.2 100960
1 december, wed
wed123:00+25nnw0087100 0.7 100929
02:00+24nw1186100 1.5 100826
05:00+24nnw2285100 0.1 100847
08:00+26nnw238186 0.1 1010299
11:00+29nne236889 0.0 10081098
14:00+30n3467100 0.4 1006952
17:00+27n238391 0.8 1007153
20:00+25nw2289100 1.1 100969
2 december, thu
thu223:00+24nw2291100 0.1 100970
02:00+24nw229199 0.1 100755
05:00+24nnw1190100 0.3 100843
08:00+26nne1283100 0.3 1011256
11:00+29e22706 0.3 1009926
14:00+29ese2268100 0.7 1007882
17:00+26nne1184100 1.5 100877
20:00+25nnw2289100 1.9 101153
3 december, fri
fri323:00+25nw1188100 0.3 101025
02:00+24nnw1190100 2.3 100934
05:00+24wnw1192100 1.4 101049
08:00+25w0087100 1.6 1012123
11:00+28ne117796 1.8 1011533
14:00+26nne1185100 4.7 1008110
17:00+25ese1188100 3.4 100962
20:00+24nne1193100 3.9 101259
4 december, sat
sat423:00+24nw1190100 0.1 101145
02:00+24n2291100 0.1 100980
05:00+23nnw239297 0.0 100987
08:00+25nne358585 0.4 1011371
11:00+27n4776100 0.3 1010666
14:00+28n577265 0.3 1007836
17:00+26n4682100 0.1 1008340
20:00+24nnw3486100 0.1 1010127